Alexandria, Egypt

2:52 PM EET on May 23, 2017 (GMT +0200)
Alexandria

Weather History for HEAX - May, 2013

Change the Weather History Date:

Monday, May 6, 2013

  Actual Average Record
Temperature  
Mean Temperature 73 °F -  
Max Temperature 78 °F 78 °F 96 °F (2004)
Min Temperature 68 °F 63 °F 50 °F (1997)
Cooling Degree Days 8    
Growing Degree Days 23 (Base 50)    
Moisture  
Dew Point 66 °F    
Average Humidity 77    
Maximum Humidity 88    
Minimum Humidity 58    
Precipitation  
Precipitation 0.00 in 0.00 in - ()
Sea Level Pressure  
Sea Level Pressure 29.90 in    
Wind  
Wind Speed 7 mph ()    
Max Wind Speed 15 mph    
Max Gust Speed -    
Visibility 6.1 miles    
Events      
Averages and records for this station are not official NWS values.
T = Trace of Precipitation, MM = Missing Value Source: Averaged Metar Reports

Daily Weather History Graph

Daily Weather History Graph

Search for Another Location

Airport or City:

Trip Planner

Search our weather history database for the weather conditions in past years. The results will help you decide how hot, cold, wet, or windy it might be!

Date:

Astronomy

May. 06, 2013 Rise Set
Actual Time 5:11 AM EET 6:42 PM EET
Civil Twilight 4:45 AM EET 7:08 PM EET
Nautical Twilight 4:14 AM EET 7:40 PM EET
Astronomical Twilight 3:41 AM EET 8:12 PM EET
Moon 2:49 AM EET (5/6) 3:34 PM EET (5/6)
Length of Visible Light 14h 23m
Length of Day
13h 31m
Waning Crescent, 13% of the Moon is Illuminated
May 6
Waning Crescent
May 10
New
May 18
First Quarter
May 25
Full
May 31
Last Quarter

Hourly Weather History & Observations

Time (EET) Temp. Dew Point Humidity Pressure Visibility Wind Dir Wind Speed Gust Speed Precip Events Conditions
12:00 AM 69.8 °F 66.2 °F 88% 29.92 in - NNW 6.9 mph - N/A   Clear
1:00 AM 69.8 °F 64.4 °F 83% 29.92 in - NW 6.9 mph - N/A   Clear
2:00 AM 69 °F 64 °F 80% 29.90 in 6 mi NW 6.9 mph - -  
2:00 AM 69.8 °F 64.4 °F 83% 29.89 in - NW 6.9 mph - N/A   Clear
3:00 AM 69.8 °F 64.4 °F 83% 29.89 in - NW 6.9 mph - N/A   Clear
4:00 AM 69.8 °F 64.4 °F 83% 29.89 in - NW 5.8 mph - N/A   Clear
5:00 AM 69.8 °F 64.4 °F 83% 29.89 in - NNW 6.9 mph - N/A   Clear
6:00 AM 69.8 °F 64.4 °F 83% 29.89 in - North 3.5 mph - N/A   Clear
7:00 AM 71.6 °F 64.4 °F 78% 29.89 in - North 2.3 mph - N/A   Clear
8:00 AM 74 °F 65 °F 67% 29.90 in 6 mi North 6.9 mph - -  
8:00 AM 73.4 °F 64.4 °F 73% 29.89 in - North 6.9 mph - N/A   Clear
9:00 AM 75.2 °F 64.4 °F 69% 29.89 in - North 5.8 mph - N/A   Clear
10:00 AM 77.0 °F 66.2 °F 69% 29.92 in - NW 9.2 mph - N/A   Clear
11:00 AM 77.0 °F 64.4 °F 65% 29.92 in - NW 9.2 mph - N/A   Clear
12:00 PM 78.8 °F 68.0 °F 69% 29.92 in 6.2 mi NW 10.4 mph - N/A   Scattered Clouds
1:00 PM 78.8 °F 68.0 °F 69% 29.92 in 6.2 mi NW 11.5 mph - N/A   Partly Cloudy
2:00 PM 78 °F 66 °F 58% 29.90 in 6 mi NNW 11.5 mph - -  
2:00 PM 78.8 °F 66.2 °F 65% 29.89 in - NNW 11.5 mph - N/A   Clear
3:00 PM 78.8 °F 68.0 °F 69% 29.89 in 6.2 mi NNW 11.5 mph - N/A   Partly Cloudy
4:00 PM 77.0 °F 68.0 °F 74% 29.89 in 6.2 mi NNW 15.0 mph - N/A   Scattered Clouds
5:00 PM 75.2 °F 68.0 °F 78% 29.89 in 6.2 mi NNW 13.8 mph - N/A   Scattered Clouds
6:00 PM 73.4 °F 68.0 °F 83% 29.89 in 6.2 mi NW 11.5 mph - N/A   Scattered Clouds
7:00 PM 71.6 °F 66.2 °F 83% 29.89 in 6.2 mi NNW 11.5 mph - N/A   Scattered Clouds
8:00 PM 72 °F 66 °F 77% 29.89 in 6 mi NNW 12.7 mph - -   Partly Cloudy
8:00 PM 71.6 °F 66.2 °F 83% 29.89 in 6.2 mi NNW 12.7 mph - N/A   Scattered Clouds
9:00 PM 69.8 °F 66.2 °F 88% 29.92 in 6.2 mi NNW 8.1 mph - N/A   Scattered Clouds
10:00 PM 69.8 °F 66.2 °F 88% 29.92 in 6.2 mi NNW 4.6 mph - N/A   Scattered Clouds
11:00 PM 71.6 °F 66.2 °F 83% 29.92 in 6.2 mi NNW 6.9 mph - N/A   Partly Cloudy